Temp
66 66 66 63 57 57 56 63 66 59 60 61 60 60 62 61 58 58 60 52 49 48 48 50 51 51 52 52 52 52 52 53 53 52 52 53 53 53
65 64 64 63 58 56 54 58 65 66 63 66 61 60 60 60 57 58 59 52 48 47 47 47 49 50 50 50 50 50 51 51 51 51 51 51 52 52
64 63 62 62 57 54 54 52 53 57 62 63 63 58 56 57 58 57 58 58 59 47 47 46 46 47 48 48 48 48 48 48 48 48 49 49 50 50
62 61 61 59 58 54 51 50 49 59 63 61 59 56 57 56 58 55 58 59 60 51 46 46 46 45 46 46 46 46 46 46 46 46 46 47 48 48
61 60 58 56 53 51 49 51 50 58 60 60 57 57 57 55 54 55 56 56 58 52 46 45 46 46 46 46 46 46 45 45 44 44 44 44 44 45
59 58 56 54 54 49 48 48 52 59 58 58 57 56 56 54 55 54 52 55 56 57 53 49 48 47 46 46 45 45 44 44 44 44 43 42 42 42
56 55 54 52 48 48 48 53 54 55 56 57 56 55 54 52 52 55 54 56 54 54 55 56 55 56 55 46 47 46 44 43 43 43 43 42 41 41
52 52 49 46 45 43 43 45 52 54 56 56 56 54 54 54 54 53 54 50 50 52 51 54 54 54 56 56 48 43 42 42 42 43 43 42 41 40
51 50 47 47 44 47 41 41 41 42 45 54 53 53 54 54 54 52 52 53 53 51 51 51 54 53 56 55 43 41 42 42 42 42 41 41 40 39
49 47 48 45 44 48 49 49 50 50 50 52 55 57 57 56 54 55 53 53 51 50 50 47 54 52 55 55 43 41 41 41 41 41 41 40 39 39
46 45 48 45 41 43 50 48 47 46 40 40 41 41 40 41 48 51 50 50 47 48 48 48 49 45 49 51 53 40 40 41 41 40 40 40 39 38
44 43 39 45 38 40 53 52 50 50 48 49 50 45 45 43 38 53 54 49 49 45 48 45 45 47 43 51 52 53 52 41 39 39 39 39 38 45
43 41 41 38 39 40 44 52 52 48 40 49 49 49 49 49 49 51 52 52 48 48 49 49 44 45 44 44 48 50 51 50 51 50 44 41 39 40
41 42 42 38 39 39 40 38 36 39 45 45 46 47 48 48 49 48 48 48 49 49 49 47 46 45 43 41 42 48 49 50 50 48 48 46 42 41
43 40 37 37 37 37 37 36 35 43 44 44 46 48 47 49 48 46 45 46 46 47 46 47 46 46 44 41 41 43 42 46 49 46 47 47 46 46
36 38 37 35 36 39 39 40 46 44 39 45 47 50 47 44 44 44 43 44 43 45 46 46 47 46 42 43 43 41 45 41 47 47 46 45 47 48
37 36 37 36 35 36 40 43 42 44 42 42 43 44 43 42 43 43 43 43 41 44 44 46 46 47 45 43 40 43 43 43 46 46 44 42 44 45
37 36 35 35 37 39 40 39 39 37 39 41 43 41 43 44 43 44 45 43 43 43 43 45 45 43 42 42 41 41 43 43 44 44 43 38 37 43
37 36 35 36 36 37 38 38 38 39 41 40 40 41 41 42 41 42 41 38 36 37 41 42 40 38 32 32 44 39 42 42 41 39 40 40 37 39
37 36 36 36 36 37 37 37 37 38 38 39 38 39 38 38 36 35 34 34 34 35 34 36 36 35 32 32 34 42 35 42 41 39 38 41 41 35
39 39 39 39 40 41 41 39 38 37 36 36 36 35 35 35 34 34 34 34 34 34 32 33 37 35 38 37 32 36 44 34 39 40 39 37 35 35
45 46 46 46 46 46 46 44 44 42 42 39 38 37 36 36 35 35 34 34 34 34 34 36 38 36 34 32 34 36 40 43 37 33 32 33 34 30
44 45 45 45 45 45 45 44 44 43 43 43 43 42 35 38 39 38 36 35 35 34 34 34 35 35 32 33 34 37 39 36 40 38 40 33 32 31
MSLP
1019.05 1019.66 1020.11 1020.72 1021.33 1021.70 1021.97 1022.07 1022.10 1022.66 1023.05 1023.61 1024.30 1024.81 1025.24 1025.73 1026.27 1026.70 1026.70 1027.23 1027.82 1027.86 1027.97 1028.31 1028.35 1028.39 1028.40 1028.31 1028.03 1028.09 1028.05 1027.70 1027.42 1027.36 1027.18 1026.87 1026.38 1025.93
1018.45 1019.15 1019.65 1020.32 1020.96 1021.49 1021.79 1022.16 1022.07 1022.13 1022.16 1022.63 1023.67 1024.31 1024.73 1025.20 1025.61 1026.05 1026.27 1026.86 1027.24 1027.44 1027.66 1027.87 1027.95 1028.04 1028.11 1027.94 1027.63 1027.43 1027.37 1027.28 1027.24 1027.25 1026.92 1026.57 1026.09 1025.73
1018.00 1018.50 1019.14 1019.84 1020.51 1021.21 1021.70 1022.17 1022.50 1022.68 1022.26 1022.69 1023.24 1024.23 1024.58 1024.66 1025.18 1025.89 1026.06 1026.31 1026.28 1026.74 1027.10 1027.34 1027.45 1027.54 1027.63 1027.64 1027.57 1027.55 1027.49 1027.20 1026.94 1026.95 1026.74 1026.21 1025.74 1025.50
1017.38 1018.05 1018.60 1019.50 1020.04 1020.88 1021.47 1021.71 1022.37 1022.26 1022.18 1022.11 1022.97 1023.74 1024.24 1024.64 1024.89 1025.52 1025.59 1025.79 1025.93 1026.10 1026.57 1026.69 1026.84 1026.92 1027.06 1027.26 1027.26 1027.40 1027.25 1026.92 1026.71 1026.67 1026.46 1025.99 1025.52 1025.25
1016.64 1017.38 1018.16 1019.00 1019.79 1020.43 1021.31 1021.81 1022.35 1022.33 1022.15 1022.13 1022.74 1023.57 1024.10 1024.57 1024.92 1025.28 1025.20 1025.29 1025.63 1025.81 1026.13 1026.12 1026.12 1026.28 1026.39 1026.40 1026.72 1026.62 1026.63 1026.60 1026.29 1026.25 1026.00 1025.64 1025.23 1024.88
1016.30 1016.91 1017.77 1018.57 1019.24 1019.90 1020.66 1021.25 1021.69 1021.80 1022.00 1021.86 1022.50 1023.00 1023.44 1024.28 1024.32 1024.35 1024.73 1024.93 1024.82 1025.25 1025.45 1025.36 1025.37 1025.48 1025.84 1025.87 1025.89 1026.06 1026.04 1025.86 1025.83 1025.71 1025.52 1025.27 1024.80 1024.35
1016.05 1016.61 1017.17 1017.74 1018.45 1019.17 1020.04 1020.66 1021.15 1021.49 1021.54 1021.51 1022.01 1022.58 1022.77 1023.37 1023.33 1023.50 1023.87 1024.09 1024.58 1025.00 1024.76 1024.74 1024.82 1024.88 1024.90 1025.44 1025.38 1025.34 1025.40 1025.39 1025.21 1025.14 1024.90 1024.66 1024.31 1023.81
1015.40 1016.28 1017.06 1017.53 1018.47 1018.59 1019.12 1020.03 1020.74 1020.69 1020.87 1021.09 1021.37 1021.73 1021.89 1022.29 1022.64 1022.81 1023.27 1023.92 1024.02 1024.92 1024.85 1024.02 1024.28 1024.05 1023.99 1024.25 1024.30 1024.54 1024.81 1025.11 1024.94 1024.64 1024.46 1024.20 1023.82 1023.31
1015.14 1015.83 1016.63 1016.91 1018.11 1018.60 1018.89 1020.16 1020.40 1020.75 1020.87 1021.10 1021.12 1021.19 1021.40 1021.78 1022.06 1022.40 1022.85 1023.11 1023.34 1024.26 1024.49 1023.85 1023.85 1023.63 1023.54 1023.73 1024.13 1024.00 1024.33 1024.51 1024.37 1024.38 1024.09 1023.76 1023.36 1022.80
1014.60 1015.75 1016.21 1016.63 1017.57 1018.11 1019.00 1019.79 1020.45 1020.82 1021.33 1021.11 1021.01 1021.09 1021.25 1021.49 1021.91 1022.06 1022.37 1022.85 1023.92 1024.45 1024.48 1023.73 1023.60 1023.25 1023.20 1023.22 1023.63 1023.85 1023.93 1024.03 1024.07 1023.75 1023.26 1023.08 1022.75 1022.24
1014.83 1015.97 1016.06 1016.76 1016.96 1018.04 1018.61 1019.33 1020.33 1020.90 1021.38 1021.26 1021.45 1021.63 1021.80 1022.17 1022.09 1022.59 1022.66 1022.90 1023.24 1023.80 1024.18 1024.05 1023.72 1023.54 1023.13 1022.98 1022.91 1023.37 1023.54 1023.66 1023.48 1023.00 1022.66 1022.36 1022.19 1021.73
1015.59 1015.76 1016.22 1016.53 1017.13 1017.99 1018.15 1018.68 1019.47 1019.97 1020.73 1021.20 1021.47 1021.74 1021.96 1022.52 1022.83 1022.09 1022.08 1022.36 1022.81 1023.34 1023.73 1024.10 1023.89 1023.79 1023.20 1022.72 1022.80 1022.81 1022.80 1023.07 1023.09 1022.42 1021.89 1021.72 1021.72 1020.86
1014.94 1015.61 1015.98 1016.72 1017.17 1017.72 1018.06 1018.55 1018.80 1019.53 1020.20 1020.56 1021.12 1021.49 1021.64 1021.96 1022.10 1022.35 1022.42 1022.56 1022.84 1022.92 1023.45 1023.54 1023.74 1023.99 1023.63 1022.95 1022.27 1022.16 1022.14 1021.90 1021.77 1021.26 1020.91 1020.56 1020.81 1020.51
1015.14 1015.49 1016.09 1016.79 1017.20 1017.84 1018.41 1018.66 1018.95 1019.45 1019.93 1020.36 1020.91 1021.07 1021.15 1021.41 1021.84 1022.20 1022.49 1022.68 1022.90 1022.98 1023.16 1023.51 1023.15 1023.43 1023.31 1022.89 1022.36 1021.79 1021.78 1021.24 1021.01 1020.82 1020.28 1019.73 1019.52 1019.39
1014.97 1015.81 1016.58 1017.00 1017.51 1018.10 1018.64 1018.78 1019.10 1019.31 1019.76 1020.24 1020.41 1020.67 1020.97 1021.29 1021.73 1022.12 1022.63 1022.94 1022.87 1022.91 1023.11 1022.99 1022.82 1022.81 1023.06 1022.62 1022.17 1021.57 1021.59 1021.03 1020.64 1020.44 1020.17 1019.33 1018.92 1018.79
1015.33 1016.32 1016.90 1017.34 1017.94 1018.25 1018.99 1019.26 1019.14 1019.24 1019.40 1019.55 1020.18 1020.45 1020.92 1021.35 1021.58 1021.81 1022.17 1022.36 1022.28 1021.97 1022.15 1022.36 1022.34 1022.33 1022.44 1022.19 1021.98 1021.21 1020.99 1020.76 1020.21 1019.80 1019.84 1019.44 1018.60 1018.34
1015.87 1017.01 1016.85 1017.60 1018.14 1018.72 1018.95 1019.23 1019.22 1019.33 1019.43 1019.76 1020.11 1020.40 1020.69 1021.07 1021.38 1021.61 1021.78 1021.90 1021.78 1021.38 1021.29 1021.43 1021.46 1021.64 1021.81 1021.75 1021.34 1020.67 1020.18 1019.88 1019.64 1019.32 1019.34 1018.93 1017.99 1017.74
1016.39 1016.84 1016.88 1017.71 1017.86 1018.42 1018.99 1019.17 1019.16 1019.20 1019.39 1019.65 1019.91 1020.31 1020.46 1020.65 1020.97 1021.18 1021.25 1021.30 1021.26 1021.03 1020.96 1020.79 1020.83 1021.10 1021.27 1020.95 1020.77 1019.74 1019.58 1019.08 1019.06 1018.87 1018.63 1018.43 1017.62 1017.08
1016.44 1016.96 1017.21 1017.59 1018.06 1018.15 1018.39 1018.68 1018.63 1018.87 1019.18 1019.49 1019.77 1020.15 1020.48 1020.47 1020.87 1020.69 1020.71 1020.99 1020.85 1020.78 1020.65 1020.50 1020.61 1020.77 1020.59 1019.89 1019.28 1019.18 1018.83 1018.62 1018.45 1018.30 1018.19 1017.95 1017.27 1016.55
1016.47 1016.76 1017.12 1017.52 1017.74 1017.94 1018.05 1018.18 1018.31 1018.69 1019.15 1019.33 1019.71 1020.03 1020.17 1020.25 1020.42 1020.39 1020.51 1020.61 1020.55 1020.42 1020.40 1020.44 1020.26 1020.39 1020.33 1019.83 1019.26 1018.56 1018.61 1018.21 1017.97 1017.71 1017.47 1017.38 1016.83 1016.38
1016.37 1016.62 1016.88 1016.99 1017.19 1017.46 1017.77 1018.01 1018.23 1018.52 1018.84 1019.16 1019.36 1019.62 1019.78 1019.95 1020.03 1020.12 1020.08 1020.05 1020.21 1020.17 1020.00 1019.75 1019.42 1019.69 1019.69 1019.83 1019.18 1018.08 1017.38 1017.81 1017.61 1017.40 1017.33 1017.04 1016.52 1015.92
1015.80 1015.96 1016.26 1016.41 1016.61 1016.80 1017.16 1017.53 1017.77 1018.06 1018.33 1018.55 1018.77 1018.99 1019.19 1019.48 1019.49 1019.49 1019.46 1019.46 1019.53 1019.48 1019.24 1019.12 1019.05 1019.24 1019.34 1019.01 1018.14 1017.36 1016.85 1016.60 1017.15 1017.23 1017.26 1017.23 1016.70 1015.98
1015.57 1015.73 1016.01 1016.18 1016.36 1016.65 1016.84 1017.33 1017.49 1017.43 1017.57 1017.81 1017.92 1018.09 1018.43 1018.50 1018.57 1018.74 1018.79 1018.67 1018.77 1018.94 1018.92 1018.72 1018.58 1018.68 1018.50 1018.13 1017.59 1016.96 1016.40 1016.36 1016.05 1016.00 1015.68 1015.85 1015.92 1015.74
Wind_Speed
13 12 10 7 5 4 3 5 5 4 6 7 6 11 9 8 9 11 10 13 13 12 11 9 7 7 6 8 8 10 11 12 11 13 15 16 18 20
9 13 11 7 6 4 4 3 4 6 6 4 7 5 10 8 10 12 11 8 13 12 11 11 9 9 8 9 8 10 11 11 11 12 14 16 18 20
12 13 12 10 6 5 3 3 3 2 7 3 3 6 8 10 9 10 8 9 8 12 12 12 12 11 10 10 8 8 11 10 10 11 13 15 17 20
13 12 12 7 9 5 4 6 5 9 7 8 5 6 6 8 8 10 8 7 8 9 12 13 13 12 10 9 10 8 9 10 9 10 12 14 17 19
13 12 11 10 8 6 5 4 5 6 6 4 4 3 4 5 7 8 9 9 7 6 10 11 12 12 11 10 11 11 9 9 9 10 10 11 16 19
10 10 11 10 9 8 7 7 7 9 7 5 4 4 4 4 6 8 8 7 7 6 8 8 5 9 11 11 11 12 10 9 9 9 10 11 15 17
10 10 10 13 12 11 6 9 8 8 7 7 5 5 6 5 9 6 8 6 5 6 6 6 6 7 8 11 13 12 11 10 10 9 10 11 15 16
12 9 8 11 10 15 11 9 11 10 10 7 7 7 8 6 6 7 6 5 4 2 5 6 5 7 7 8 8 8 9 10 10 9 11 11 15 17
11 12 9 8 7 5 8 9 6 5 1 7 9 8 6 8 7 7 9 7 5 4 4 5 3 6 5 6 9 9 10 10 10 10 12 11 14 17
11 9 9 9 8 9 10 8 7 6 4 4 5 3 5 5 8 5 7 5 1 3 4 4 1 5 4 6 7 9 9 10 10 12 14 12 14 17
9 8 9 8 10 13 11 10 8 5 4 2 2 3 2 4 6 5 5 5 3 3 4 2 1 3 4 5 4 5 7 9 12 13 15 14 13 17
7 7 9 6 15 13 11 11 9 8 6 6 5 6 5 6 6 4 4 4 3 2 4 4 1 2 4 2 2 2 5 10 12 16 16 12 12 11
7 6 4 8 13 13 8 9 7 10 6 5 4 3 4 4 4 4 3 3 3 4 4 4 2 2 3 4 4 4 6 5 8 9 9 8 8 12
4 4 4 9 12 10 7 10 12 7 6 6 4 4 4 4 4 4 4 4 4 5 3 7 3 4 4 5 6 5 8 8 7 8 9 10 9 10
6 5 7 8 8 7 6 11 8 5 6 5 4 4 4 3 4 3 4 5 6 6 6 9 7 7 6 7 9 9 7 7 9 5 9 11 10 11
7 6 5 6 3 5 5 6 5 5 4 5 4 3 3 3 4 4 4 4 4 6 9 11 11 9 8 9 10 11 10 7 7 8 7 10 10 10
7 3 5 3 4 3 3 6 4 5 4 3 3 4 3 3 4 4 4 4 5 5 5 5 7 10 9 11 10 12 10 10 9 8 7 9 10 10
4 2 2 2 4 5 7 5 4 4 3 3 4 4 5 5 5 5 5 6 6 6 7 5 5 6 7 10 18 12 11 10 8 8 7 8 10 10
3 3 3 4 3 3 3 3 3 3 4 4 3 5 5 5 5 6 5 5 5 5 6 5 5 6 7 10 8 21 9 8 6 7 6 7 9 11
3 4 4 4 3 3 3 2 2 2 3 3 3 4 4 4 4 4 4 5 5 4 4 4 5 7 8 7 5 11 19 10 8 8 6 7 9 14
3 3 3 4 4 3 3 3 3 3 3 3 3 3 3 3 4 5 5 6 6 5 6 7 7 6 5 5 7 9 8 19 15 8 5 7 8 6
4 4 3 3 3 2 2 2 2 2 3 4 5 4 4 5 5 5 5 5 6 6 7 6 5 3 4 7 11 12 9 6 8 17 16 12 5 5
4 4 3 3 3 4 4 4 5 4 5 5 5 5 5 6 6 6 6 6 6 6 7 6 5 5 8 8 11 11 14 7 6 7 7 14 19 21
Wind_Direction
206 204 207 193 169 168 158 182 212 205 215 195 202 203 203 197 196 199 209 194 205 207 214 224 232 249 268 280 290 291 299 295 298 311 318 319 325 328
203 204 204 192 171 169 168 183 232 241 253 189 205 167 193 197 185 204 209 189 208 210 217 228 233 244 256 269 272 278 285 295 300 306 313 319 325 327
203 207 204 185 175 164 143 124 179 257 244 153 188 175 185 199 194 207 207 213 213 209 219 229 233 237 247 261 265 282 287 290 293 301 310 319 326 327
200 199 201 182 176 162 155 181 206 221 243 227 167 185 210 204 205 205 209 221 235 194 220 230 232 233 240 253 255 269 278 283 282 288 305 318 323 322
189 186 175 164 168 160 157 196 224 229 214 211 164 174 194 188 196 214 214 222 233 223 228 233 230 237 236 243 250 251 263 275 267 274 291 306 310 315
178 169 163 173 181 164 173 182 206 210 204 195 185 176 192 175 209 208 214 218 230 233 238 254 269 242 235 242 247 246 247 259 255 274 290 295 296 305
167 165 169 177 162 162 161 194 186 199 200 198 203 195 188 184 205 198 227 214 222 242 251 249 249 248 242 235 257 242 238 250 250 271 286 290 296 304
168 164 161 156 178 170 179 197 198 183 195 200 202 213 201 207 196 199 202 203 237 181 238 254 232 252 254 252 250 246 239 258 257 274 288 289 299 301
173 163 171 151 166 194 165 186 172 173 130 188 196 206 202 206 188 188 199 208 228 154 228 267 220 261 262 262 238 234 246 258 261 280 287 287 296 296
151 157 165 153 174 163 162 158 168 168 169 190 218 216 218 177 191 195 194 195 191 206 228 268 233 274 281 272 209 245 248 255 259 281 285 287 287 289
133 159 163 162 146 162 161 153 157 148 75 85 43 41 127 168 161 150 166 186 208 224 188 263 301 287 286 285 281 218 236 247 274 278 282 292 284 292
153 150 154 157 156 170 168 167 172 166 163 157 139 109 136 154 182 233 179 203 195 246 162 215 235 291 302 198 256 241 249 228 263 270 271 283 285 308
153 151 136 176 163 170 163 176 174 149 144 138 138 137 140 160 174 199 201 234 224 252 146 200 203 228 252 295 291 260 282 284 297 302 288 242 279 297
108 121 127 154 159 158 164 137 137 132 141 145 170 177 176 176 184 192 198 215 236 263 157 225 242 230 256 282 278 284 296 303 298 304 306 310 290 299
137 138 133 139 146 143 137 142 154 139 152 164 191 199 189 179 175 187 211 234 246 240 231 221 231 250 253 260 276 285 296 294 301 290 305 307 318 319
105 102 120 116 145 126 132 172 177 173 155 173 198 181 153 182 205 192 210 201 241 244 224 227 232 239 253 260 271 278 281 280 278 294 292 295 304 310
95 114 112 111 125 137 178 193 180 179 182 184 186 185 186 197 213 197 218 212 238 267 257 222 227 242 245 257 267 270 272 272 281 291 289 294 301 310
101 121 84 139 163 174 193 192 189 181 186 193 209 216 219 218 218 215 220 228 250 255 262 277 273 263 248 246 238 259 264 272 273 280 289 292 294 302
110 133 135 147 179 173 180 186 172 190 179 200 212 226 237 236 222 234 227 233 242 246 262 274 269 269 271 265 272 215 261 258 257 269 273 285 294 297
103 126 132 152 160 171 175 185 167 157 195 196 212 222 226 225 230 232 222 233 241 248 257 251 252 249 246 271 286 285 209 258 262 272 286 291 290 287
138 139 156 154 159 165 174 174 183 187 187 186 208 215 218 202 232 236 237 235 251 252 250 252 255 251 252 270 264 264 265 216 251 263 284 295 301 293
153 148 148 145 150 155 162 184 202 211 218 216 226 219 217 221 231 235 227 236 241 240 247 258 269 245 236 238 267 279 275 269 223 241 245 252 266 276
184 183 180 191 186 194 197 209 219 217 220 230 232 235 208 235 235 245 247 238 246 257 259 263 257 240 248 255 264 276 274 265 281 287 282 218 238 250